Content
SEND FEEDBACK

Daily
Averages
Monthly
Summary
United States of America

SOUTH LAKE TAHOE - AIRPORT, CALIFORNIA


Home > North America > United States > California
Elevation: 6250 feet     Latitude: 38 54N     Longitude: 120 00W

WEATHER
 
SELECT A DAY
Number of Records: 174,348;   Date Range: 1/1/95 - 7/23/14
 
SHARE

PRINT THIS DATA

[ ← Previous Day ]
WEATHER ALMANAC - OCTOBER 5, 2013
[ Next Day → ]
[ °C ]   °F
Weather ElementAverageHighLow
Temperature41.7 °F64 °F (2:53 pm)19.9 °F (6:53 am)
Dewpoint16.3 °F21 °F (11:53 am)10.9 °F (5:53 am)
Humidity41 %68 % (6:53 am)15 % (2:53 pm)
Barometer30.38 in30.47 in (7:53 am)30.31 in (4:53 pm)
Wind Speed2.2 mph5.8 mph (7:53 am)
Weather ElementAverage
Visibility9.8 mi
Wind DirectionENE (55.2 °)

Weather ElementTotal
Precipitation---
Heating Degree Days23.1 (Base 65)
Averaged from 23 records on October 5, 2013
WEATHER CONDITIONS BREAKOUT
WIND DIRECTION BREAKOUT
WEATHER BY HOUR - OCTOBER 5, 2013
[ °C ]   °F
Local TimeTemperatureDewpointHumidityBarometerVisibilityWind DirectionWind SpeedGust SpeedPrecipitationEventsConditions
1:53 AM26.1 °F12.0 °F55 %30.37 in10.0 miSSW (200°)3.5 mphClear
2:53 AM26.1 °F12.9 °F58 %30.37 in10.0 miSSW (200°)3.5 mphClear
3:53 AM24.1 °F12.0 °F60 %30.38 in10.0 miCalmClear
4:53 AM24.1 °F12.0 °F60 %30.38 in10.0 miCalmClear
5:53 AM21.9 °F10.9 °F63 %30.41 in10.0 miCalmClear
6:53 AM19.9 °F10.9 °F68 %30.44 in10.0 miSouth (190°)3.5 mphClear
7:53 AM23.0 °F12.0 °F63 %30.47 in10.0 miSouth (180°)5.8 mphClear
8:53 AM34.0 °F15.1 °F46 %30.44 in10.0 miSouth (180°)3.5 mphClear
9:53 AM48.0 °F19.9 °F33 %30.41 in10.0 miCalmClear
10:53 AM53.1 °F19.9 °F27 %30.40 in10.0 miENE (70°)3.5 mphClear
11:53 AM55.9 °F21.0 °F26 %30.39 in10.0 miVariable3.5 mphClear
12:53 PM60.1 °F19.9 °F21 %30.36 in10.0 miVariable5.8 mphClear
1:53 PM62.1 °F15.1 °F16 %30.34 in10.0 miVariable3.5 mphClear
2:53 PM64.0 °F15.1 °F15 %30.32 in10.0 miCalmClear
3:53 PM64.0 °F17.1 °F16 %30.32 in10.0 miNNE (20°)5.8 mphClear
4:53 PM64.0 °F16.0 °F16 %30.31 in10.0 miNNE (20°)4.6 mphClear
5:53 PM55.0 °F21.0 °F27 %30.34 in10.0 miCalmClear
6:53 PM48.9 °F17.1 °F28 %30.38 in10.0 miCalmClear
7:53 PM44.1 °F19.9 °F38 %30.39 in10.0 miSSW (210°)3.5 mphClear
8:53 PM39.9 °F19.0 °F43 %30.38 in10.0 miCalmClear
9:53 PM37.0 °F19.9 °F50 %30.35 in10.0 miCalmClear
10:53 PM33.1 °F18.0 °F54 %30.35 in10.0 miCalmClear
11:53 PM30.9 °F18.0 °F59 %30.34 in5.0 miCalmHaze
Hourly data recorded from KTVL, located miles away from South Lake Tahoe - Airport, California







STORIES FROM OUR PARTNERS